GW4623 Weather Reports


time (UTC)temp
C
wind
direction
speed
KPH
gust
KPH
rain 1hr
cm
rain 24hr
cm
rain mn
cm
humidity
%
barometer
mb
20260502233956 17 199 4.8 14.5 0.00 0.00 0.00 38 1010.3
20260502233456 18 244 4.8 11.3 0.00 0.00 0.00 36 1010.6
20260502232953 18 162 3.2 3.2 0.00 0.00 0.00 35 1010.6
20260502232450 18 51 1.6 1.6 0.00 0.00 0.00 36 1010.4
20260502231946 18 126 3.2 3.2 0.00 0.00 0.00 36 1010.5
20260502231444 18 127 0.0 6.4 0.00 0.00 0.00 37 1010.6
20260502230942 18 212 1.6 4.8 0.00 0.00 0.00 34 1010.5
20260502230439 17 61 1.6 3.2 0.00 0.00 0.00 34 1010.9
20260502225937 17 165 4.8 9.7 0.00 0.00 0.00 34 1010.6
20260502225433 17 169 1.6 8.0 0.00 0.00 0.00 34 1010.9
20260502224930 17 149 4.8 9.7 0.00 0.00 0.00 36 1011.0
20260502224426 17 152 1.6 3.2 0.00 0.00 0.00 36 1010.8
20260502223923 17 179 1.6 3.2 0.00 0.00 0.00 35 1011.1
20260502223421 17 55 0.0 6.4 0.00 0.00 0.00 35 1010.9
20260502222919 17 324 1.6 3.2 0.00 0.00 0.00 34 1011.3
20260502222416 17 174 3.2 3.2 0.00 0.00 0.00 33 1011.1
20260502221911 17 136 3.2 4.8 0.00 0.00 0.00 34 1011.2
20260502221408 18 296 1.6 4.8 0.00 0.00 0.00 35 1011.3
20260502220905 18 315 0.0 3.2 0.00 0.00 0.00 34 1011.1
20260502220401 18 282 3.2 3.2 0.00 0.00 0.00 34 1011.3
20260502215857 18 323 3.2 4.8 0.00 0.00 0.00 32 1011.5
20260502215355 18 195 3.2 4.8 0.00 0.00 0.00 35 1011.5
20260502214852 18 238 0.0 4.8 0.00 0.00 0.00 33 1011.5
20260502214348 18 330 1.6 6.4 0.00 0.00 0.00 33 1011.6
20260502213845 18 329 0.0 8.0 0.00 0.00 0.00 32 1011.4
20260502213343 18 336 4.8 4.8 0.00 0.00 0.00 35 1011.8
20260502212842 19 280 4.8 6.4 0.00 0.00 0.00 32 1011.8
20260502212340 18 175 1.6 14.5 0.00 0.00 0.00 35 1011.8
20260502211836 18 224 14.5 14.5 0.00 0.00 0.00 31 1011.9
20260502211332 20 195 3.2 3.2 0.00 0.00 0.00 33 1012.0
20260502210830 20 174 8.0 8.0 0.00 0.00 0.00 33 1012.2
20260502210327 18 243 3.2 6.4 0.00 0.00 0.00 32 1012.1
20260502205824 19 218 6.4 22.5 0.00 0.00 0.00 32 1012.5
20260502205320 18 161 3.2 8.0 0.00 0.00 0.00 34 1012.4
20260502204817 18 197 4.8 4.8 0.00 0.00 0.00 33 1012.5
20260502204314 18 269 1.6 4.8 0.00 0.00 0.00 34 1012.7
20260502203812 20 326 6.4 6.4 0.00 0.00 0.00 29 1012.8
20260502203309 19 203 4.8 8.0 0.00 0.00 0.00 33 1012.9
20260502202809 18 186 6.4 11.3 0.00 0.00 0.00 33 1013.1
20260502202307 19 201 3.2 12.9 0.00 0.00 0.00 33 1013.0
20260502201805 20 228 3.2 4.8 0.00 0.00 0.00 32 1013.1
20260502201301 19 108 4.8 8.0 0.00 0.00 0.00 37 1013.3
20260502200757 18 195 4.8 11.3 0.00 0.00 0.00 35 1013.5
20260502200253 17 142 6.4 14.5 0.00 0.00 0.00 33 1013.4
20260502195752 18 249 4.8 6.4 0.00 0.00 0.00 35 1013.4
20260502195248 18 162 3.2 16.1 0.00 0.00 0.00 34 1013.5
20260502194744 18 269 0.0 6.4 0.00 0.00 0.00 32 1014.0
20260502194242 18 93 3.2 4.8 0.00 0.00 0.00 34 1013.7
20260502193737 18 231 6.4 9.7 0.00 0.00 0.00 35 1014.0
20260502193235 18 96 4.8 6.4 0.00 0.00 0.00 36 1013.9
20260502192734 17 93 3.2 9.7 0.00 0.00 0.00 35 1014.1
20260502192232 17 117 4.8 9.7 0.00 0.00 0.00 32 1014.3
20260502191728 17 204 1.6 6.4 0.00 0.00 0.00 35 1014.6
20260502191226 16 128 3.2 17.7 0.00 0.00 0.00 35 1014.4
20260502190723 16 150 6.4 12.9 0.00 0.00 0.00 35 1014.8
20260502190221 16 118 6.4 8.0 0.00 0.00 0.00 35 1014.9
20260502185720 17 206 4.8 9.7 0.00 0.00 0.00 34 1014.9
20260502185217 17 210 9.7 9.7 0.00 0.00 0.00 33 1014.9
20260502184713 16 154 3.2 12.9 0.00 0.00 0.00 34 1015.0
20260502184209 16 230 8.0 14.5 0.00 0.00 0.00 34 1015.0
20260502183706 16 225 8.0 9.7 0.00 0.00 0.00 36 1015.2
20260502183202 16 149 8.0 12.9 0.00 0.00 0.00 38 1015.3
20260502182657 16 232 4.8 6.4 0.00 0.00 0.00 36 1015.4
20260502182153 15 194 3.2 17.7 0.00 0.00 0.00 37 1015.4
20260502181651 16 152 6.4 11.3 0.00 0.00 0.00 36 1015.5
20260502181150 16 173 9.7 12.9 0.00 0.00 0.00 33 1015.6
20260502180646 16 218 6.4 6.4 0.00 0.00 0.00 34 1015.7
20260502180143 15 230 3.2 6.4 0.00 0.00 0.00 33 1015.6
20260502170108 15 136 3.2 9.7 0.00 0.00 0.00 38 1016.7
20260502164054 15 321 3.2 3.2 0.00 0.00 0.00 35 1016.8
20260502163550 14 202 4.8 11.3 0.00 0.00 0.00 37 1016.9
20260502163047 15 312 4.8 6.4 0.00 0.00 0.00 35 1016.8
20260502162544 14 178 11.3 16.1 0.00 0.00 0.00 35 1017.0
20260502162041 15 221 6.4 12.9 0.00 0.00 0.00 37 1017.1
20260502161538 14 138 3.2 6.4 0.00 0.00 0.00 40 1017.1
20260502161036 15 211 4.8 8.0 0.00 0.00 0.00 36 1017.1
20260502160533 14 31 4.8 4.8 0.00 0.00 0.00 37 1017.2
20260502151941 12 291 3.2 8.0 0.00 0.00 0.00 38 1017.7
20260502151437 13 207 1.6 4.8 0.00 0.00 0.00 44 1017.6
20260502150935 13 111 3.2 3.2 0.00 0.00 0.00 41 1017.7
20260502150432 12 17 3.2 4.8 0.00 0.00 0.00 40 1017.7
20260502130317 8 4 0.0 1.6 0.00 0.00 0.00 55 1018.4
20260502123803 6 33 1.6 4.8 0.00 0.00 0.00 62 1018.5
20260502123300 6 344 1.6 4.8 0.00 0.00 0.00 64 1018.2
20260502122756 6 92 1.6 3.2 0.00 0.00 0.00 67 1018.4
20260502122252 5 95 0.0 3.2 0.00 0.00 0.00 69 1018.2
20260502121751 3 79 0.0 3.2 0.00 0.00 0.00 75 1018.1
20260502121248 2 80 3.2 3.2 0.00 0.00 0.00 76 1018.1
20260502120745 2 79 3.2 4.8 0.00 0.00 0.00 80 1018.4
20260502120242 2 70 1.6 4.8 0.00 0.00 0.00 81 1018.4
20260502115739 1 60 1.6 4.8 0.00 0.00 0.00 82 1018.2
20260502115236 1 67 3.2 6.4 0.00 0.00 0.00 83 1018.1
20260502114732 1 71 1.6 3.2 0.00 0.00 0.00 83 1018.1
20260502114229 0 61 3.2 4.8 0.00 0.00 0.00 84 1018.1
20260502113726 0 51 1.6 3.2 0.00 0.00 0.00 85 1018.6
20260502113224 0 62 3.2 3.2 0.00 0.00 0.00 84 1017.9
20260502112722 0 56 3.2 3.2 0.00 0.00 0.00 84 1018.2
20260502112219 0 38 3.2 4.8 0.00 0.00 0.00 83 1018.2
20260502111716 0 64 4.8 6.4 0.00 0.00 0.00 84 1018.4
20260502111214 0 56 1.6 4.8 0.00 0.00 0.00 85 1018.0
20260502110711 0 45 3.2 4.8 0.00 0.00 0.00 85 1018.0
20260502110209 0 69 3.2 4.8 0.00 0.00 0.00 84 1018.1
20260502105707 0 69 3.2 4.8 0.00 0.00 0.00 84 1018.1
20260502105203 0 82 3.2 4.8 0.00 0.00 0.00 83 1017.9
20260502104700 0 66 3.2 3.2 0.00 0.00 0.00 83 1017.9
20260502104158 0 76 4.8 4.8 0.00 0.00 0.00 82 1017.9
20260502103655 0 130 0.0 3.2 0.00 0.00 0.00 83 1018.0
20260502103153 0 55 4.8 6.4 0.00 0.00 0.00 82 1018.1
20260502102649 0 94 0.0 3.2 0.00 0.00 0.00 80 1018.0
20260502102146 1 43 1.6 6.4 0.00 0.00 0.00 81 1018.2
20260502101644 1 52 3.2 4.8 0.00 0.00 0.00 78 1017.9
20260502101142 1 76 3.2 6.4 0.00 0.00 0.00 78 1018.2
20260502100640 1 50 3.2 4.8 0.00 0.00 0.00 76 1018.1
20260502100138 1 38 1.6 4.8 0.00 0.00 0.00 75 1018.1
20260502091112 2 62 1.6 3.2 0.00 0.00 0.00 76 1018.0
20260502090609 2 63 1.6 3.2 0.00 0.00 0.00 74 1017.7
20260502090107 1 58 3.2 3.2 0.00 0.00 0.00 76 1017.7
20260502071504 2 42 1.6 3.2 0.00 0.00 0.00 71 1018.1
20260502071002 2 62 1.6 3.2 0.00 0.00 0.00 72 1018.2
20260502070500 2 58 1.6 3.2 0.00 0.00 0.00 72 1018.1
20260502065958 2 44 3.2 3.2 0.00 0.00 0.00 74 1018.1
20260502065456 2 57 3.2 3.2 0.00 0.00 0.00 74 1018.1
20260502064954 2 47 0.0 3.2 0.00 0.00 0.00 74 1018.0
20260502064451 2 63 1.6 3.2 0.00 0.00 0.00 72 1018.1
20260502063948 2 52 1.6 3.2 0.00 0.00 0.00 73 1018.1
20260502063446 2 47 1.6 3.2 0.00 0.00 0.00 74 1018.4
20260502062943 2 64 1.6 3.2 0.00 0.00 0.00 73 1018.5
20260502062440 2 55 1.6 3.2 0.00 0.00 0.00 74 1018.5
20260502061939 2 58 1.6 3.2 0.00 0.00 0.00 75 1018.2
20260502061437 2 46 1.6 3.2 0.00 0.00 0.00 75 1018.1
20260502060932 2 63 1.6 3.2 0.00 0.00 0.00 73 1018.5
20260502060428 2 54 1.6 3.2 0.00 0.00 0.00 71 1018.4
20260502055925 2 67 1.6 3.2 0.00 0.00 0.00 71 1018.4
20260502055423 2 48 1.6 3.2 0.00 0.00 0.00 70 1018.2
20260502054917 2 60 1.6 3.2 0.00 0.00 0.00 69 1018.2
20260502054414 3 50 1.6 3.2 0.00 0.00 0.00 69 1018.5
20260502053911 2 64 1.6 3.2 0.00 0.00 0.00 70 1018.5
20260502053408 2 72 1.6 3.2 0.00 0.00 0.00 71 1018.1
20260502052906 3 49 1.6 3.2 0.00 0.00 0.00 70 1018.5
20260502052404 3 38 1.6 3.2 0.00 0.00 0.00 68 1018.5
20260502051901 3 59 1.6 1.6 0.00 0.00 0.00 70 1018.4
20260502051400 3 49 1.6 3.2 0.00 0.00 0.00 71 1018.5
20260502050856 2 63 1.6 3.2 0.00 0.00 0.00 68 1018.4
20260502050353 2 70 0.0 3.2 0.00 0.00 0.00 71 1018.4
20260502045849 2 71 1.6 1.6 0.00 0.00 0.00 70 1018.5
20260502045346 2 68 1.6 3.2 0.00 0.00 0.00 70 1018.0
20260502044843 2 61 1.6 3.2 0.00 0.00 0.00 74 1018.4
20260502044339 2 56 1.6 3.2 0.00 0.00 0.00 69 1018.4
20260502043837 2 69 1.6 3.2 0.00 0.00 0.00 70 1018.4
20260502043334 3 55 1.6 3.2 0.00 0.00 0.00 73 1018.2
20260502042828 3 55 3.2 3.2 0.00 0.00 0.00 70 1018.4
20260502042326 3 55 1.6 3.2 0.00 0.00 0.00 68 1018.5
20260502041823 3 56 1.6 3.2 0.00 0.00 0.00 70 1018.2
20260502041321 3 64 0.0 3.2 0.00 0.00 0.00 71 1018.2
20260502040818 3 53 1.6 3.2 0.00 0.00 0.00 71 1018.4
20260502040315 3 72 1.6 3.2 0.00 0.00 0.00 69 1018.2
20260502035811 3 70 1.6 3.2 0.00 0.00 0.00 69 1018.4
20260502035308 3 56 3.2 3.2 0.00 0.00 0.00 71 1018.5
20260502034805 3 39 1.6 3.2 0.00 0.00 0.00 68 1018.2
20260502034303 3 59 1.6 3.2 0.00 0.00 0.00 67 1018.4
20260502033801 3 66 3.2 3.2 0.00 0.00 0.00 67 1018.4
20260502033258 3 64 1.6 3.2 0.00 0.00 0.00 62 1018.6
20260502032755 3 54 1.6 3.2 0.00 0.00 0.00 63 1018.6
20260502032251 4 62 3.2 3.2 0.00 0.00 0.00 64 1018.2
20260502031749 4 56 3.2 3.2 0.00 0.00 0.00 61 1018.5
20260502031247 5 54 0.0 3.2 0.00 0.00 0.00 65 1018.5
20260502030745 5 46 1.6 3.2 0.00 0.00 0.00 57 1018.4
20260502030243 5 47 3.2 3.2 0.00 0.00 0.00 59 1018.5
20260502025740 5 59 1.6 3.2 0.00 0.00 0.00 59 1018.4
20260502025237 5 48 3.2 3.2 0.00 0.00 0.00 55 1018.4
20260502024735 5 36 3.2 3.2 0.00 0.00 0.00 62 1018.4
20260502024232 5 62 1.6 3.2 0.00 0.00 0.00 57 1018.4
20260502023730 5 43 3.2 3.2 0.00 0.00 0.00 53 1018.6
20260502023227 5 46 1.6 3.2 0.00 0.00 0.00 53 1018.4
20260502022725 5 48 3.2 3.2 0.00 0.00 0.00 53 1018.6
20260502022221 6 47 1.6 3.2 0.00 0.00 0.00 55 1018.2
20260502021719 6 47 1.6 3.2 0.00 0.00 0.00 50 1018.5
20260502021216 6 58 3.2 3.2 0.00 0.00 0.00 51 1018.2
20260502020713 6 61 3.2 3.2 0.00 0.00 0.00 48 1018.2
20260502020210 6 54 1.6 3.2 0.00 0.00 0.00 46 1018.2
20260502015709 7 42 3.2 3.2 0.00 0.00 0.00 47 1018.2
20260502015204 7 37 1.6 3.2 0.00 0.00 0.00 44 1018.0
20260502014702 7 50 3.2 3.2 0.00 0.00 0.00 43 1017.8
20260502014159 7 39 0.0 3.2 0.00 0.00 0.00 45 1017.9
20260502013655 7 54 1.6 3.2 0.00 0.00 0.00 41 1017.8
20260502013150 7 48 3.2 3.2 0.00 0.00 0.00 42 1017.8
20260502012648 8 68 1.6 3.2 0.00 0.00 0.00 40 1017.6
20260502012146 8 49 3.2 3.2 0.00 0.00 0.00 42 1017.6
20260502011642 8 101 1.6 3.2 0.00 0.00 0.00 40 1017.6
20260502011138 8 63 0.0 3.2 0.00 0.00 0.00 42 1017.8
20260502010635 9 11 0.0 3.2 0.00 0.00 0.00 39 1017.7
20260502010132 9 98 3.2 3.2 0.00 0.00 0.00 38 1017.7
20260502005630 9 56 3.2 3.2 0.00 0.00 0.00 37 1017.8
20260502005127 10 124 3.2 3.2 0.00 0.00 0.00 35 1017.7
20260502004623 10 63 3.2 3.2 0.00 0.00 0.00 35 1017.7
20260502004120 10 98 0.0 3.2 0.00 0.00 0.00 34 1017.8
20260502003618 10 106 1.6 3.2 0.00 0.00 0.00 39 1017.7
20260502003114 10 124 1.6 3.2 0.00 0.00 0.00 37 1017.8
20260502002610 10 57 0.0 3.2 0.00 0.00 0.00 35 1017.7
20260502002108 10 91 0.0 4.8 0.00 0.00 0.00 35 1017.8
20260502001606 10 55 3.2 3.2 0.00 0.00 0.00 34 1017.8
20260502001103 10 24 0.0 3.2 0.00 0.00 0.00 33 1017.6
20260502000601 10 82 1.6 3.2 0.00 0.00 0.00 36 1017.8
20260502000058 10 22 0.0 6.4 0.00 0.00 0.00 32 1017.7
20260501235554 10 21 3.2 4.8 0.00 0.00 0.00 33 1017.8
20260501235050 10 94 1.6 3.2 0.00 0.00 0.00 34 1017.7
20260501234545 10 261 0.0 3.2 0.00 0.00 0.00 34 1017.7